Location: ??????
(31.2056°N, 45.3906°E)
Time: 18:35:43
(UTC+00:00)

APEX - Pass Details

Date: 09 April 2020
Orbit: 331 x 1113 km, 69.9° (Epoch: 27 May)

Event Time Altitude Azimuth Distance (km) Brightness Sun altitude
Rises 16:58:28 0° 339° (NNW) 3,620 8.2 -20.3°
Reaches altitude 10° 17:01:16 10° 340° (NNW) 2,557 7.3 -20.9°
Maximum altitude 17:07:09 83° 68° (ENE) 759 3.8 -22.0°
Enters shadow 17:08:24 52° 150° (SSE) 894 4.0 -22.3°
